OPS 4682 DEB, 38372

Orbit data source: Space-Track

OPS 4682 DEB, 38372 is space debris in LEO originally from a launch on Sat, 03 Apr 1965 UTC launched from the Air Force Western Test Range (AFWTR). Debris objects in space refer to the collection of defunct objects orbiting the Earth. Examples of debris include non-operational satellites, rocket bodies, and fragments generated from explosions, collisions, or faulty payload assembly.

Loading next visibility...
Identifier
38372, 1965-027BZ
Orbit
LEO
Country
Flag of USUS
Related business
Manufacturer
Unknown
Mission
Spacecraft
Bus & Motor
Unknown
Mass
Unknown
Launch date (UTC)
1965-04-03 (61 years ago)
Launch vehicle
Unknown
Launch site
Air Force Western Test Range (AFWTR)
Object type
Payload
Rocket body
Debris
Shape & HBR
Unknown shape, 0.1 m
Radar Cross Section
Small (<0.1 m²)

Expand to show TLE details & history
Last TLE update: 1 week ago

TLE from 1 week ago
0 OPS 4682 DEB
1 38372U 65027BZ  26098.27514196  .00000721  00000-0  24394-2 0  9997
2 38372  90.3104  37.9720 0028076 218.8717 141.0385 12.97900194654400
Epoch: 2026-04-08T06:36Z
TLE epoch observation values (Epoch: 2026-04-08T06:36:12.265Z)
Latitude
-0.00003°
Longitude
102.38105°
Altitude
1,289.93 km
Speed
7.203 km/s
True Right ascension
02h 31m 53s
True Declination
0° 00' 00"
Sunlit
Object was in daylight at epoch
Visualization orbit readout
Latitude
Unknown
Longitude
Unknown
Altitude
Unknown
Speed
Unknown
Apparent Right ascension
Unknown
Apparent Declination
Unknown
Sunlit
N/A
Visualization observer readout
Local Sidereal Time
04:20:20
Azimuth
Unknown
Elevation
Unknown
Doppler factor
Unknown
Orbital elements
Apogee altitude
1,288.921 km
Perigee altitude
1,245.989 km
Semi-major axis
7,645.592 km
Eccentricity
0.00281
Inclination
90.3104°
RAAN
37.972°
Arg. of periapsis
218.8717°
True anomaly
141.24025°
Mean anomaly
141.0385°
Eccentric anomaly
141.13943°
Mean motion
3.24658 °/min
Orbital period
110.89 mins
BSTAR
0.0024394
Loading maneuver chart data...
Computing Atmospheric mass density...
Loading historical data...
Loading historical data...
Loading historical data...
Loading historical data...
Loading historical data...
Loading historical data...
Loading historical data...

Documentation

Showing up to 5 results
|